Date String (YYYY-MM-DD hh:mm:ss) UTC,Instrument flags,Ambient pressure (hPa),Sample flow (lpm),Bypass flow (lpm),Sample temperature (°C),Ambient temperature (°C),ASC tube jacket temperature (°C),LED temperature (°C),Box temperature (°C),Sample RH (%),Span deviation,Mass concentration (μg/m³),Mass concentration (μg/m³),Mass concentration (μg/m³)
DateTimeUTC,F1_M11,P_M11,Q1_M11,Q2_M11,T1_M11,T2_M11,T3_M11,T4_M11,T5_M11,U1_M11,ZSPAN_M11,X2_M11,X0_M11,X1_M11
2023-02-27 10:00:00,,0811.6,5.01,0.00,21.7,19.9,00.0,30.5,23.3,09.0,0000.0,0000.63,0002.58,0000.31
2023-02-27 10:01:00,,0811.6,5.00,0.00,21.7,19.8,00.0,30.5,23.2,09.2,0000.0,0000.59,0002.50,0000.30
2023-02-27 10:02:00,,0811.6,5.02,0.00,21.6,19.7,00.0,30.5,23.1,09.2,0000.0,0000.56,0002.35,0000.30
2023-02-27 10:03:00,,0811.7,5.01,0.00,21.6,19.6,00.0,30.4,23.1,09.3,0000.0,0000.55,0002.17,0000.31
2023-02-27 10:04:00,,0811.8,5.04,0.00,21.6,20.1,00.0,30.4,23.2,09.4,0000.0,0000.56,0002.17,0000.31
2023-02-27 10:05:00,,0811.8,5.02,0.00,21.7,21.6,00.0,30.4,23.5,09.3,0000.0,0000.58,0002.19,0000.32
2023-02-27 10:06:00,,0811.7,4.99,0.00,21.8,22.7,00.0,30.4,23.9,09.3,0000.0,0000.54,0002.07,0000.31
2023-02-27 10:07:00,,0811.6,4.99,0.00,22.0,23.1,00.0,30.5,24.0,09.3,0000.0,0000.56,0002.08,0000.32
2023-02-27 10:08:00,,0811.7,5.00,0.00,22.0,22.3,00.0,30.5,23.8,09.0,0000.0,0000.57,0002.04,0000.31
2023-02-27 10:09:00,,0811.7,5.00,0.00,21.9,21.6,00.0,30.6,23.7,09.1,0000.0,0000.58,0001.94,0000.31
2023-02-27 10:10:00,,0811.5,4.99,0.00,21.9,21.1,00.0,30.6,23.5,09.2,0000.0,0000.54,0000.97,0000.30
2023-02-27 10:11:00,,0811.5,4.99,0.00,21.8,20.8,00.0,30.6,23.5,09.4,0000.0,0000.54,0000.95,0000.31
2023-02-27 10:12:00,,0811.7,5.01,0.00,21.8,20.4,00.0,30.6,23.4,09.3,0000.0,0000.60,0001.09,0000.31
2023-02-27 10:13:00,,0811.6,5.01,0.00,21.7,20.2,00.0,30.6,23.3,09.5,0000.0,0000.62,0001.16,0000.32
2023-02-27 10:14:00,,0811.5,5.00,0.00,21.7,19.9,00.0,30.5,23.2,09.7,0000.0,0000.62,0001.24,0000.32
2023-02-27 10:15:00,,0811.5,5.01,0.00,21.6,19.7,00.0,30.5,23.1,09.6,0000.0,0000.61,0001.22,0000.33
2023-02-27 10:16:00,,0811.6,5.00,0.00,21.6,19.5,00.0,30.5,23.0,09.7,0000.0,0000.59,0001.17,0000.33
2023-02-27 10:17:00,,0811.6,4.99,0.00,21.5,19.5,00.0,30.4,22.9,09.8,0000.0,0000.60,0001.18,0000.33
2023-02-27 10:18:00,,0811.5,4.99,0.00,21.5,19.5,00.0,30.4,22.9,10.0,0000.0,0000.57,0001.12,0000.32
2023-02-27 10:19:00,,0811.4,5.00,0.00,21.4,19.6,00.0,30.4,22.9,10.0,0000.0,0000.58,0001.28,0000.32
2023-02-27 10:20:00,,0811.7,5.01,0.00,21.5,20.7,00.0,30.3,23.2,09.9,0000.0,0000.57,0001.27,0000.32
2023-02-27 10:21:00,,0811.7,5.00,0.00,21.6,21.9,00.0,30.4,23.6,09.7,0000.0,0000.58,0001.29,0000.33
2023-02-27 10:22:00,,0811.7,4.99,0.00,21.8,22.4,00.0,30.4,23.7,09.7,0000.0,0000.59,0001.31,0000.33
2023-02-27 10:23:00,,0811.7,4.95,0.00,21.8,21.7,00.0,30.4,23.6,09.7,0000.0,0000.57,0001.25,0000.33
2023-02-27 10:24:00,,0811.7,5.02,0.00,21.7,21.1,00.0,30.4,23.4,09.6,0000.0,0000.53,0001.15,0000.32
2023-02-27 10:25:00,,0811.8,5.00,0.00,21.6,20.6,00.0,30.4,23.2,09.7,0000.0,0000.50,0001.00,0000.31
2023-02-27 10:26:00,,0811.9,5.02,0.00,21.6,20.2,00.0,30.4,23.1,09.7,0000.0,0000.50,0001.10,0000.31
2023-02-27 10:27:00,,0811.9,4.99,0.00,21.5,20.0,00.0,30.4,23.1,09.7,0000.0,0000.52,0001.32,0000.31
2023-02-27 10:28:00,,0811.8,5.00,0.00,21.5,19.7,00.0,30.4,23.0,09.6,0000.0,0000.52,0001.36,0000.31
2023-02-27 10:29:00,,0811.9,5.00,0.00,21.4,19.6,00.0,30.4,22.9,09.5,0000.0,0000.54,0001.43,0000.32
2023-02-27 10:30:00,,0812.0,5.00,0.00,21.4,19.5,00.0,30.3,22.8,09.4,0000.0,0000.52,0001.22,0000.32
2023-02-27 10:31:00,,0812.1,5.00,0.00,21.3,19.7,00.0,30.3,22.8,09.2,0000.0,0000.51,0001.17,0000.33
2023-02-27 10:32:00,,0812.2,5.00,0.00,21.4,21.1,00.0,30.3,23.2,09.4,0000.0,0000.52,0001.18,0000.33
2023-02-27 10:33:00,,0812.2,4.99,0.00,21.6,22.2,00.0,30.3,23.5,09.3,0000.0,0000.52,0001.19,0000.33
2023-02-27 10:34:00,,0812.3,5.03,0.00,21.7,22.8,00.0,30.3,23.7,09.2,0000.0,0000.50,0001.13,0000.33
2023-02-27 10:35:00,,0812.4,4.98,0.00,21.7,22.1,00.0,30.4,23.5,09.2,0000.0,0000.50,0001.17,0000.33
2023-02-27 10:36:00,,0812.4,5.02,0.00,21.7,21.3,00.0,30.4,23.3,09.2,0000.0,0000.52,0001.29,0000.33
2023-02-27 10:37:00,,0812.5,5.01,0.00,21.6,20.6,00.0,30.4,23.1,09.2,0000.0,0000.51,0002.07,0000.34
2023-02-27 10:38:00,,0812.5,5.00,0.00,21.5,20.2,00.0,30.4,23.0,08.8,0000.0,0000.50,0001.90,0000.33
2023-02-27 10:39:00,,0812.5,5.02,0.00,21.4,19.8,00.0,30.4,22.9,08.6,0000.0,0000.49,0001.82,0000.32
2023-02-27 10:40:00,,0812.4,5.00,0.00,21.4,19.5,00.0,30.3,22.7,08.9,0000.0,0000.48,0001.77,0000.31
2023-02-27 10:41:00,,0812.4,5.00,0.00,21.3,19.3,00.0,30.3,22.6,09.3,0000.0,0000.49,0001.74,0000.30
2023-02-27 10:42:00,,0812.3,5.01,0.00,21.2,19.3,00.0,30.3,22.6,09.3,0000.0,0000.48,0001.74,0000.30
2023-02-27 10:43:00,,0812.5,5.00,0.00,21.3,20.6,00.0,30.2,23.0,09.5,0000.0,0000.47,0001.72,0000.29
2023-02-27 10:44:00,,0812.5,4.98,0.00,21.4,21.9,00.0,30.2,23.3,09.3,0000.0,0000.48,0001.80,0000.29
2023-02-27 10:45:00,,0812.5,5.02,0.00,21.6,22.2,00.0,30.3,23.5,08.6,0000.0,0000.49,0001.85,0000.29
2023-02-27 10:46:00,,0812.5,5.00,0.00,21.6,21.6,00.0,30.3,23.4,08.4,0000.0,0000.49,0001.81,0000.29
2023-02-27 10:47:00,,0812.5,5.03,0.00,21.6,21.0,00.0,30.3,23.2,08.6,0000.0,0000.50,0001.73,0000.29
2023-02-27 10:48:00,,0812.6,4.99,0.00,21.5,20.5,00.0,30.3,23.1,08.2,0000.0,0000.51,0000.95,0000.30
2023-02-27 10:49:00,,0812.5,5.01,0.00,21.4,20.1,00.0,30.3,22.9,08.0,0000.0,0000.48,0000.90,0000.29
2023-02-27 10:50:00,,0812.6,5.00,0.00,21.4,19.8,00.0,30.3,22.8,08.1,0000.0,0000.51,0000.92,0000.29
2023-02-27 10:51:00,,0812.7,5.00,0.00,21.3,19.6,00.0,30.3,22.8,08.0,0000.0,0000.50,0000.92,0000.30
2023-02-27 10:52:00,,0813.0,5.00,0.00,21.3,19.5,00.0,30.3,22.8,08.1,0000.0,0000.49,0000.94,0000.29
2023-02-27 10:53:00,,0812.8,5.00,0.00,21.3,19.4,00.0,30.2,22.7,08.7,0000.0,0000.49,0001.00,0000.30
2023-02-27 10:54:00,,0812.8,5.02,0.00,21.3,20.6,00.0,30.2,23.0,08.8,0000.0,0000.49,0001.01,0000.29
2023-02-27 10:55:00,,0812.8,5.01,0.00,21.5,21.8,00.0,30.2,23.3,08.6,0000.0,0000.50,0000.99,0000.30
2023-02-27 10:56:00,,0812.8,4.98,0.00,21.6,22.5,00.0,30.2,23.5,08.5,0000.0,0000.47,0000.90,0000.29
2023-02-27 10:57:00,,0812.8,4.99,0.00,21.6,21.8,00.0,30.3,23.4,08.3,0000.0,0000.48,0000.90,0000.29
2023-02-27 10:58:00,,0812.9,5.00,0.00,21.6,21.1,00.0,30.3,23.3,08.4,0000.0,0000.48,0000.87,0000.29
2023-02-27 10:59:00,,0812.9,5.03,0.00,21.6,20.6,00.0,30.3,23.1,09.1,0000.0,0000.47,0000.83,0000.29
